This is the latest recevied weather packets stored in our database for station/object KD8OZS. If no packets are shown the sender has not sent any weather packets the latest 10 day(s).
| Time | Temp. | Humidity | Pressure | Rain* | Wind** | Luminosity | Snow |
|---|---|---|---|---|---|---|---|
| 1787832619 | 16.67° C | 99% | 1007 hPa | 0 mm | - | 63 W/m² | - |
| 1787832317 | 16.67° C | 99% | 1007 hPa | 0 mm | - | 58 W/m² | - |
| 1787832017 | 16.67° C | 99% | 1006.9 hPa | 0 mm | - | 56 W/m² | - |
| 1787831710 | 16.67° C | 99% | 1006.9 hPa | 0 mm | - | 47 W/m² | - |
| 1787831409 | 16.11° C | 99% | 1006.8 hPa | 0 mm | - | 35 W/m² | - |
| 1787831108 | 16.11° C | 99% | 1006.7 hPa | 0 mm | - | 38 W/m² | - |
| 1787830805 | 16.11° C | 99% | 1006.5 hPa | 0 mm | - | 35 W/m² | - |
| 1787830504 | 16.11° C | 98% | 1006.7 hPa | 0 mm | - | 32 W/m² | - |
| 1787830203 | 16.11° C | 99% | 1006.7 hPa | 0 mm | - | 26 W/m² | - |
| 1787829899 | 16.11° C | 99% | 1006.6 hPa | 0 mm | - | 22 W/m² | - |
| 1787829597 | 16.11° C | 98% | 1006.6 hPa | 0 mm | - | 17 W/m² | - |
| 1787829294 | 16.11° C | 98% | 1006.4 hPa | 0 mm | - | 13 W/m² | - |
| 1787828989 | 16.11° C | 98% | 1006.5 hPa | 0 mm | - | 9 W/m² | - |
| 1787828685 | 16.11° C | 98% | 1006.4 hPa | 0 mm | - | 6 W/m² | - |
| 1787828380 | 16.11° C | 98% | 1006.4 hPa | 0 mm | - | 4 W/m² | - |
| 1787828079 | 16.11° C | 98% | 1006.4 hPa | 0 mm | - | 2 W/m² | - |
| 1787827778 | 16.11° C | 98% | 1006.4 hPa | 0 mm | - | 0 W/m² | - |
| 1787827475 | 16.11° C | 98% | 1006.3 hPa | 0 mm | - | 0 W/m² | - |
| 1787827174 | 16.11° C | 98% | 1006.3 hPa | 0 mm | - | 0 W/m² | - |
| 1787826873 | 16.11° C | 98% | 1006.2 hPa | 0 mm | - | 0 W/m² | - |
| 1787826569 | 15.56° C | 98% | 1006.2 hPa | 0 mm | - | 0 W/m² | - |
| 1787826265 | 16.11° C | 98% | 1006.3 hPa | 0 mm | - | 0 W/m² | - |
| 1787825959 | 16.11° C | 98% | 1006.4 hPa | 0 mm | - | 0 W/m² | - |
| 1787825654 | 16.11° C | 98% | 1006.2 hPa | 0 mm | - | 0 W/m² | - |
| 1787825353 | 16.11° C | 98% | 1006.3 hPa | 0 mm | - | 0 W/m² | - |
* Rain latest hour (hover to see other rain measurements)
** Current wind speed in m/s (hover to see current wind gust speed)